User: anonymous   Login
Location: Härggis
(46.9540°N, 8.4897°E)
Time: 14:16:52
(UTC+00:00)
Language:

S3M - Orbit

View from above orbital plane
View from above orbital plane
View from above satellite
View from above satellite

Ground track
Ground track

The orbit data is extracted from the following two-line orbital elements,

1 12508U 81053B   22227.40895806  .00000052  00000-0  37826-4 0  9995
2 12508  82.9599 186.5639 0036913 336.1574  23.7871 13.76402284 74566
Epoch (UTC): 15 August 2022 09:48:53
Eccentricity: 0.0036913
inclination: 82.9599°
perigee height: 949 km
apogee height: 1004 km
right ascension of ascending node: 186.5639°
argument of perigee: 336.1574°
revolutions per day: 13.76402284
mean anomaly at epoch: 23.7871°
orbit number at epoch: 7456

The dashed part of the orbit path shows where the satellite is in the earth's shadow,  

DLR